Location: Poprad
(49.0500°N, 20.3000°E)
Time: 19:21:17
(UTC+02:00)

RS-44 - Pass Details

Date: 23 April 2024
Orbit: 1174 x 1511 km, 82.5° (Epoch: 20 May)

Event Time Altitude Azimuth Distance (km) Brightness Sun altitude
Rises 22:38:58 0° 247° (WSW) 4,609 ? -22.8°
Reaches altitude 10° 22:43:10 10° 265° (W) 3,595 ? -23.1°
Maximum altitude 22:48:46 18° 306° (NW) 2,922 ? -23.6°
Drops below altitude 10° 22:54:12 10° 348° (NNW) 3,456 ? -24.0°
Sets 22:58:10 0° 7° (N) 4,369 ? -24.3°
